When you browse on this site, cookies collect data to enhance your experience and personalize the content and advertising you see.
Visit our Privacy Policy to learn more. By continuing to use the site, you agree to this use of cookies and data.
  • In Spain
  • List of Countries
  • For 7 days
  • Water Temperature
  • Weather Map
  • Weather Widgets
  • user-avatar
    Login

    Hourly Weather Sumgayit

    Today, 3 June, Wednesday

    Time Temperature Precipitation Wind Pressure Humidity
    00:00 +24°C° 0 mm 1 mps 731 mmHg 51%
    01:00 +23°C° 0 mm 1 mps 731 mmHg 51%
    02:00 +23°C° 0 mm 1 mps 731 mmHg 51%
    03:00 +23°C° 0 mm 1 mps 731 mmHg 54%
    04:00 +23°C° 0 mm 2 mps 731 mmHg 55%
    05:00 +22°C° 0 mm 3 mps 731 mmHg 55%
    06:00 +23°C° 0 mm 4 mps 731 mmHg 55%
    07:00 +26°C° 0 mm 5 mps 731 mmHg 48%
    08:00 +29°C° 0 mm 6 mps 731 mmHg 40%
    09:00 +33°C° 0 mm 7 mps 731 mmHg 32%
    10:00 +35°C° 0 mm 7 mps 731 mmHg 30%
    11:00 +37°C° 0 mm 8 mps 731 mmHg 27%
    12:00 +39°C° 0 mm 8 mps 731 mmHg 24%
    13:00 +39°C° 0 mm 7 mps 731 mmHg 23%
    14:00 +39°C° 0 mm 6 mps 730 mmHg 22%
    15:00 +39°C° 0 mm 5 mps 730 mmHg 21%
    16:00 +35°C° 0 mm 6 mps 730 mmHg 27%
    17:00 +33°C° 0 mm 7 mps 731 mmHg 33%
    18:00 +31°C° 0 mm 8 mps 731 mmHg 39%
    19:00 +29°C° 0 mm 7 mps 732 mmHg 42%
    20:00 +29°C° 0 mm 5 mps 733 mmHg 46%
    21:00 +28°C° 0 mm 4 mps 734 mmHg 50%
    22:00 +27°C° 0 mm 3 mps 734 mmHg 52%
    23:00 +27°C° 0 mm 3 mps 734 mmHg 54%

    Tomorrow, 4 June, Thursday

    Time Temperature Precipitation Wind Pressure Humidity
    00:00 +26°C° 0 mm 2 mps 734 mmHg 56%
    01:00 +25°C° 0 mm 2 mps 734 mmHg 58%
    02:00 +25°C° 0 mm 2 mps 734 mmHg 59%
    03:00 +25°C° 0 mm 1 mps 734 mmHg 60%
    04:00 +25°C° 0 mm 3 mps 735 mmHg 60%
    05:00 +25°C° 0 mm 5 mps 736 mmHg 61%
    06:00 +24°C° 0 mm 7 mps 736 mmHg 61%
    07:00 +26°C° 0 mm 8 mps 736 mmHg 57%
    08:00 +27°C° 0 mm 8 mps 737 mmHg 53%
    09:00 +28°C° 0 mm 9 mps 737 mmHg 49%
    10:00 +28°C° 0 mm 9 mps 737 mmHg 47%
    11:00 +29°C° 0 mm 9 mps 737 mmHg 45%
    12:00 +29°C° 0 mm 9 mps 737 mmHg 43%
    13:00 +28°C° 0 mm 10 mps 737 mmHg 44%
    14:00 +28°C° 0 mm 10 mps 737 mmHg 45%
    15:00 +27°C° 0 mm 11 mps 737 mmHg 46%
    16:00 +26°C° 0 mm 10 mps 737 mmHg 47%
    17:00 +26°C° 0 mm 9 mps 737 mmHg 49%
    18:00 +24°C° 0 mm 9 mps 737 mmHg 50%
    19:00 +23°C° 0 mm 7 mps 737 mmHg 51%
    20:00 +23°C° 0 mm 6 mps 737 mmHg 52%
    21:00 +22°C° 0 mm 5 mps 738 mmHg 53%
    22:00 +22°C° 0 mm 4 mps 737 mmHg 55%
    23:00 +22°C° 0 mm 3 mps 737 mmHg 56%

    Day after tomorrow, 5 June, Friday

    Time Temperature Precipitation Wind Pressure Humidity
    00:00 +23°C° 0 mm 1 mps 737 mmHg 58%
    01:00 +22°C° 0 mm 1 mps 737 mmHg 59%
    02:00 +22°C° 0 mm 1 mps 737 mmHg 61%
    03:00 +21°C° 0 mm 1 mps 737 mmHg 63%
    04:00 +22°C° 0 mm 1 mps 737 mmHg 61%
    05:00 +22°C° 0 mm 1 mps 738 mmHg 59%
    06:00 +23°C° 0 mm 1 mps 738 mmHg 57%
    07:00 +24°C° 0 mm 2 mps 738 mmHg 53%
    08:00 +26°C° 0 mm 2 mps 739 mmHg 48%
    09:00 +27°C° 0 mm 2 mps 739 mmHg 44%
    10:00 +28°C° 0 mm 3 mps 739 mmHg 41%
    11:00 +29°C° 0 mm 5 mps 739 mmHg 38%
    12:00 +29°C° 0 mm 6 mps 739 mmHg 36%
    13:00 +29°C° 0 mm 7 mps 739 mmHg 37%
    14:00 +28°C° 0 mm 9 mps 739 mmHg 38%
    15:00 +28°C° 0 mm 11 mps 739 mmHg 39%
    16:00 +27°C° 0 mm 11 mps 739 mmHg 41%
    17:00 +26°C° 0 mm 12 mps 739 mmHg 43%
    18:00 +24°C° 0 mm 13 mps 740 mmHg 45%
    19:00 +24°C° 0 mm 12 mps 740 mmHg 48%
    20:00 +23°C° 0 mm 12 mps 741 mmHg 51%
    21:00 +23°C° 0 mm 12 mps 741 mmHg 54%
    22:00 +22°C° 0 mm 11 mps 742 mmHg 55%
    23:00 +22°C° 0 mm 9 mps 742 mmHg 56%

    6 June, Saturday

    Time Temperature Precipitation Wind Pressure Humidity
    00:00 +22°C° 0 mm 8 mps 742 mmHg 57%
    01:00 +22°C° 0 mm 8 mps 742 mmHg 59%
    02:00 +21°C° 0 mm 7 mps 742 mmHg 60%
    03:00 +21°C° 0 mm 6 mps 742 mmHg 62%
    04:00 +21°C° 0 mm 6 mps 742 mmHg 61%
    05:00 +21°C° 0 mm 6 mps 742 mmHg 61%
    06:00 +21°C° 0 mm 5 mps 743 mmHg 60%
    07:00 +22°C° 0 mm 5 mps 743 mmHg 56%
    08:00 +23°C° 0 mm 5 mps 743 mmHg 51%
    09:00 +25°C° 0 mm 5 mps 743 mmHg 47%
    10:00 +26°C° 0 mm 5 mps 743 mmHg 45%
    11:00 +27°C° 0 mm 5 mps 743 mmHg 43%
    12:00 +27°C° 0 mm 5 mps 743 mmHg 42%
    13:00 +27°C° 0 mm 6 mps 743 mmHg 42%
    14:00 +27°C° 0 mm 7 mps 742 mmHg 43%
    15:00 +26°C° 0 mm 8 mps 742 mmHg 43%
    16:00 +26°C° 0 mm 8 mps 742 mmHg 45%
    17:00 +24°C° 0 mm 8 mps 742 mmHg 46%
    18:00 +23°C° 0 mm 8 mps 742 mmHg 48%
    19:00 +23°C° 0 mm 7 mps 742 mmHg 50%
    20:00 +22°C° 0 mm 6 mps 742 mmHg 52%
    21:00 +22°C° 0 mm 5 mps 742 mmHg 53%
    22:00 +21°C° 0 mm 4 mps 742 mmHg 54%
    23:00 +21°C° 0 mm 3 mps 742 mmHg 56%

    7 June, Sunday

    Time Temperature Precipitation Wind Pressure Humidity
    00:00 +21°C° 0 mm 2 mps 742 mmHg 57%
    01:00 +20°C° 0 mm 2 mps 742 mmHg 59%
    02:00 +21°C° 0 mm 1 mps 742 mmHg 61%
    03:00 +20°C° 0 mm 1 mps 742 mmHg 64%
    04:00 +21°C° 0 mm 1 mps 742 mmHg 62%
    05:00 +21°C° 0 mm 1 mps 742 mmHg 60%
    06:00 +20°C° 0 mm 0 mps 742 mmHg 58%
    07:00 +23°C° 0 mm 1 mps 743 mmHg 52%
    08:00 +25°C° 0 mm 2 mps 743 mmHg 47%
    09:00 +26°C° 0 mm 3 mps 743 mmHg 41%
    10:00 +27°C° 0 mm 3 mps 743 mmHg 38%
    11:00 +28°C° 0 mm 3 mps 743 mmHg 34%
    12:00 +29°C° 0 mm 4 mps 743 mmHg 30%
    13:00 +29°C° 0 mm 4 mps 742 mmHg 30%
    14:00 +28°C° 0 mm 5 mps 742 mmHg 29%
    15:00 +28°C° 0 mm 5 mps 742 mmHg 29%
    16:00 +28°C° 0 mm 5 mps 741 mmHg 31%
    17:00 +27°C° 0 mm 4 mps 741 mmHg 33%
    18:00 +26°C° 0 mm 4 mps 741 mmHg 35%
    19:00 +25°C° 0 mm 3 mps 741 mmHg 38%
    20:00 +24°C° 0 mm 2 mps 741 mmHg 42%
    21:00 +23°C° 0 mm 1 mps 741 mmHg 45%
    22:00 +23°C° 0 mm 1 mps 741 mmHg 46%
    23:00 +22°C° 0 mm 1 mps 741 mmHg 48%

    8 June, Monday

    Time Temperature Precipitation Wind Pressure Humidity
    00:00 +22°C° 0 mm 1 mps 741 mmHg 49%
    01:00 +22°C° 0 mm 1 mps 741 mmHg 49%
    02:00 +21°C° 0 mm 1 mps 740 mmHg 50%
    03:00 +21°C° 0 mm 1 mps 740 mmHg 50%
    04:00 +20°C° 0 mm 0 mps 740 mmHg 47%
    05:00 +20°C° 0 mm 0 mps 740 mmHg 44%
    06:00 +21°C° 0 mm 0 mps 740 mmHg 41%
    07:00 +25°C° 0 mm 1 mps 740 mmHg 37%
    08:00 +26°C° 0 mm 1 mps 740 mmHg 33%
    09:00 +27°C° 0 mm 2 mps 741 mmHg 29%
    10:00 +28°C° 0 mm 2 mps 740 mmHg 29%
    11:00 +29°C° 0 mm 3 mps 740 mmHg 28%
    12:00 +30°C° 0 mm 4 mps 740 mmHg 27%
    13:00 +30°C° 0 mm 5 mps 740 mmHg 27%
    14:00 +30°C° 0 mm 6 mps 740 mmHg 27%
    15:00 +30°C° 0 mm 6 mps 740 mmHg 28%
    16:00 +29°C° 0 mm 6 mps 739 mmHg 30%
    17:00 +28°C° 0 mm 6 mps 739 mmHg 32%
    18:00 +27°C° 0 mm 6 mps 739 mmHg 35%
    19:00 +26°C° 0 mm 5 mps 740 mmHg 36%
    20:00 +26°C° 0 mm 4 mps 740 mmHg 38%
    21:00 +25°C° 0 mm 3 mps 740 mmHg 39%
    22:00 +24°C° 0 mm 2 mps 740 mmHg 42%
    23:00 +23°C° 0 mm 2 mps 740 mmHg 44%
    Show more